This is the latest recevied weather packets stored in our database for station/object OK1KZE-6. If no packets are shown the sender has not sent any weather packets the latest 10 day(s).
| Time | Temp. | Humidity | Pressure | Rain* | Wind** | Luminosity | Snow |
|---|---|---|---|---|---|---|---|
| 1777799107 | 20° C | 41% | 1019.6 hPa | - | - | - | - |
| 1777798808 | 21.11° C | 42% | 1019.6 hPa | - | - | - | - |
| 1777798507 | 20.56° C | 41% | 1019.3 hPa | - | - | - | - |
| 1777798208 | 20° C | 39% | 1019.5 hPa | - | - | - | - |
| 1777797908 | 20° C | 39% | 1019.5 hPa | - | - | - | - |
| 1777797607 | 20° C | 40% | 1019.4 hPa | - | - | - | - |
| 1777797307 | 20.56° C | 39% | 1019.7 hPa | - | - | - | - |
| 1777797008 | 19.44° C | 40% | 1019.6 hPa | - | - | - | - |
| 1777796707 | 20° C | 40% | 1019.5 hPa | - | - | - | - |
| 1777796407 | 19.44° C | 39% | 1019.8 hPa | - | - | - | - |
| 1777796108 | 18.89° C | 40% | 1019.5 hPa | - | - | - | - |
| 1777795808 | 18.89° C | 42% | 1019.6 hPa | - | - | - | - |
| 1777795508 | 18.89° C | 40% | 1019.5 hPa | - | - | - | - |
| 1777795209 | 18.89° C | 40% | 1019.4 hPa | - | - | - | - |
| 1777794907 | 18.89° C | 40% | 1019.5 hPa | - | - | - | - |
| 1777794608 | 18.33° C | 41% | 1019.7 hPa | - | - | - | - |
| 1777794308 | 18.89° C | 42% | 1019.7 hPa | - | - | - | - |
| 1777794007 | 18.33° C | 44% | 1019.4 hPa | - | - | - | - |
| 1777793707 | 18.33° C | 44% | 1019.4 hPa | - | - | - | - |
| 1777793408 | 17.78° C | 44% | 1019.4 hPa | - | - | - | - |
| 1777793107 | 17.22° C | 43% | 1019.6 hPa | - | - | - | - |
| 1777792806 | 17.22° C | 44% | 1019.7 hPa | - | - | - | - |
| 1777792507 | 16.67° C | 45% | 1019.7 hPa | - | - | - | - |
| 1777792207 | 16.67° C | 46% | 1019.4 hPa | - | - | - | - |
| 1777791908 | 16.11° C | 47% | 1019.5 hPa | - | - | - | - |
* Rain since midnight (hover to see other rain measurements)
** Current wind speed in m/s (hover to see current wind gust speed)